SCP
0 0 0 0 0 0 0 0 0 0 0 -0 -0 -0 -0 -0 -0 0 0 0 0 0 0 0 0 0 0 0 0 0 0 0
0 0 0 0 0 0 0 0 0 -0 -0 -0 0 0 -0 -0 -0 -0 -0 -0 -0 -0 -0 -0 -0 0 0 0 0 0 0 0
0 0 0 0 0 0 0 0 0 -0 -0 -0 -0 -0 -0 -0 -0 -0 -0 -0 -0 -0 -0 -0 -0 0 0 -0 0 0 0 0
0 0 0 0 0 0 0 0 0 -0 -0 -0 0 -0 -0 -0 -0 -0 -0 -0 -0 -0 -0 -0 0 0 0 -0 -0 -0 0 0
0 0 0 0 0 0 0 0 -0 -0 0 -0 0 0 0 0 0 -0 -0 -0 0 -0 -0 -0 -0 0 0 0 0 -0 -0 0
0 0 0 0 0 0 0 0 -0 0 0 -0 0 0 0 0 0 -0 0 0 0 0 0 0 0 0 0 0 0 0 0 0
0 0 0 0 0 0 0 0 -0 0 0 0 0 0 0 0 -0 -0 -0 0 0 0 0 0 0 0 0 0 0 0 0 0
0 0 0 0 0 0 0 -0 0 0 0 0 0 0 0 0 -0 -0 0 0 0 0 0 0 -0 0 0 0 0 0 0 0
0 -0 0 0 0 0 0 -0 0 0 0 0 0 0 0 0 0 0 0 0 0 0 0 0 0 0 0 0 0 0 0 0
0 -0 0 0 0 -0 -0 -0 0 0 0 0 0 0 0 0 -0 -0 0 0 0 0 0 0 0 0 0 0 0 0 0 0
0 -0 -0 0 -0 -0 -0 0 0 0 0 0 0 0 0 0 0 0 -0 0 0 0 0 0 0 0 0 0 0 0 0 0
-0 0 0 0 -0 0 -0 -0 0 0 0 0 0 0 0 0 0 0 0 0 -0 -0 0 0 0 0 0 0 0 0 0 0
-0 0 0 0 0 -0 -0 -0 0 0 0 0 0 0 0 0 0 0 0 0 0 0 0 0 0 0 0 0 0 0 0 0
-0 0 0 -0 -0 -0 -0 -0 -0 -0 0 0 0 0 0 0 0 0 0 0 0 0 0 0 0 0 0 0 0 0 0 0
0 0 0 -0 -0 -0 -0 -0 -0 0 0 0 0 0 0 0 0 0 0 0 0 -0 -0 0 0 0 0 0 0 0 0 0
-0 0 0 -0 0 0 0 -0 0 -0 0 -0 0 0 0 0 0 0 0 0 0 0 0 0 0 0 0 0 0 0 0 0
-0 0 0 -0 0 -0 0 -0 0 -0 0 -0 0 0 0 0 0 0 0 0 0 0 0 0 0 0 0 0 0 0 0 0
0 -0 -0 -0 -0 -0 -0 -0 0 0 0 0 0 0 0 0 0 0 0 0 0 0 0 0 0 0 0 0 0 0 0 0
-0 -0 -0 0 0 -0 -0 -0 -0 0 -0 -0 0 -0 0 0 0 0 0 0 0 0 0 0 0 0 0 0 0 0 0 0
0 -0 -0 -0 -0 -0 -0 -0 -0 -0 -0 0 0 0 0 0 0 0 0 0 0 0 0 0 0 0 0 0 0 0 0 0
Wind_Speed_500mb
29 15 4 16 27 28 23 25 32 35 26 18 25 31 31 29 31 37 37 39 48 53 48 43 37 34 29 29 39 44 43 39
17 3 9 18 21 18 17 21 26 28 25 24 30 36 36 35 35 38 45 50 47 47 47 46 46 44 43 40 41 43 47 50
9 3 13 16 12 12 10 16 20 18 24 24 26 28 36 37 38 37 38 40 43 43 39 38 34 34 33 25 27 37 43 50
3 6 13 7 7 5 7 10 15 14 19 18 26 29 32 34 37 34 34 38 41 46 45 38 29 31 32 27 19 24 35 42
3 9 10 5 3 3 3 7 10 16 20 30 31 30 30 28 26 24 23 24 27 34 39 42 39 29 23 25 25 27 38 37
7 9 5 2 3 2 5 5 7 19 26 29 30 29 30 31 26 23 18 16 16 21 27 39 43 30 26 24 20 21 25 29
7 11 4 4 3 7 7 8 20 22 25 29 26 23 21 21 29 28 20 16 12 16 21 39 46 34 27 21 18 19 23 28
6 5 8 7 10 10 13 26 26 30 23 19 18 19 21 20 16 21 26 18 16 16 22 37 38 35 27 24 23 25 23 29
7 8 11 13 10 12 30 33 29 22 15 11 13 23 32 27 14 14 21 22 21 19 29 31 29 33 37 36 29 31 35 34
10 11 13 14 16 26 39 32 24 20 23 25 29 32 33 37 39 35 34 33 29 27 26 27 26 31 30 27 27 40 36 34
14 18 24 34 41 39 30 22 16 13 16 16 15 18 22 23 25 32 36 40 45 38 36 33 30 29 35 32 34 38 39 36
34 42 43 40 36 29 22 16 9 6 9 13 8 11 14 18 20 21 24 30 40 43 33 37 32 29 35 37 32 35 43 38
38 39 35 31 24 17 10 7 3 4 3 5 9 10 12 16 21 19 17 21 27 39 36 28 31 31 30 33 36 33 42 42
46 34 27 25 19 15 11 6 3 1 5 4 6 9 7 17 22 16 12 19 24 26 37 24 25 30 22 23 26 27 36 45
32 26 24 20 16 16 15 10 6 5 7 5 2 10 10 12 20 16 18 17 21 20 29 31 23 22 23 28 29 30 36 44
27 24 18 14 11 9 15 12 9 3 5 8 7 12 18 17 13 14 21 23 22 18 20 27 16 17 24 27 31 32 33 41
25 19 18 18 10 3 7 19 11 5 2 6 6 12 13 15 18 13 20 24 21 16 13 18 15 17 22 26 31 32 31 37
27 23 18 17 18 12 15 17 14 7 4 3 7 10 7 16 23 8 16 24 26 16 11 13 16 17 20 25 28 27 31 37
24 17 14 16 16 15 12 15 14 11 10 8 10 15 12 13 18 19 22 26 27 19 14 21 11 18 22 29 28 28 33 39
26 20 18 18 16 17 15 12 14 17 16 16 22 15 16 15 19 21 19 24 22 26 18 19 6 18 24 26 27 29 33 39
Wind_Direction_500mb
148 146 42 354 348 355 13 5 359 360 14 31 16 29 52 59 50 49 41 47 52 52 49 50 47 44 43 46 57 55 45 34
143 104 349 344 345 8 21 1 1 6 34 48 53 61 65 65 58 59 61 62 60 53 53 54 57 58 60 63 60 51 42 30
149 346 338 340 6 34 14 1 1 24 61 68 68 69 76 79 73 64 60 57 53 52 53 48 47 46 36 34 43 38 34 28
151 317 329 351 50 31 5 5 5 58 80 57 79 85 79 77 73 65 59 56 56 52 48 39 35 39 29 31 42 35 34 41
245 307 317 51 60 345 67 21 8 97 83 85 90 81 69 56 50 47 41 41 49 45 39 35 29 24 34 32 47 51 44 41
287 288 303 160 107 111 94 33 53 114 106 94 82 70 41 31 32 25 19 19 25 33 22 22 21 24 30 43 53 42 39 25
268 287 184 146 176 136 120 97 107 112 107 89 66 46 42 28 21 12 17 27 19 36 13 15 15 24 26 19 10 9 14 13
270 82 107 149 150 144 112 125 114 107 90 68 36 30 14 3 9 18 29 39 41 51 17 12 12 21 14 17 17 22 21 11
117 145 151 134 127 128 129 124 110 100 85 63 47 26 39 38 13 354 0 9 14 15 1 9 21 31 39 39 32 19 10 12
145 150 141 151 156 134 125 122 119 106 83 70 78 73 60 57 54 53 50 43 36 33 27 29 44 49 42 33 31 27 18 17
119 146 145 133 126 126 124 119 111 93 73 74 71 49 43 40 44 48 46 42 39 42 45 48 60 53 38 36 34 22 15 20
132 132 128 127 124 121 117 122 118 69 43 23 2 354 19 14 15 24 30 35 34 37 45 52 49 42 36 39 28 24 18 11
146 138 128 123 121 119 98 79 79 50 102 29 16 20 2 350 350 360 18 27 26 35 34 33 33 33 31 26 22 20 15 10
148 143 141 140 141 143 143 178 240 352 97 23 358 355 345 3 1 357 17 22 14 23 24 30 24 10 8 16 16 9 9 7
151 147 142 139 137 149 148 140 141 139 186 209 305 347 15 7 2 4 8 5 360 11 27 29 20 18 11 5 5 3 3 3
157 161 161 167 187 214 178 167 171 178 293 232 285 342 340 351 345 4 1 355 344 352 13 27 14 3 356 359 2 359 4 5
169 177 176 184 188 147 170 166 188 248 329 175 288 350 335 339 341 354 349 352 342 348 349 16 11 347 345 355 359 357 1 1
182 183 175 209 234 231 290 218 220 263 293 313 340 352 293 4 8 326 336 338 339 348 345 351 351 345 347 358 352 350 353 359
192 186 220 204 245 258 169 189 222 253 288 308 307 312 292 314 337 338 323 322 324 340 326 339 330 352 341 347 345 347 351 358
187 198 223 243 263 250 201 208 240 250 274 306 312 327 351 355 346 332 335 342 327 319 308 334 311 351 333 331 339 347 350 359
Wind_Speed_850mb
29 15 4 16 27 28 23 25 32 35 26 18 25 31 31 29 31 37 37 39 48 53 48 43 37 34 29 29 39 44 43 39
17 3 9 18 21 18 17 21 26 28 25 24 30 36 36 35 35 38 45 50 47 47 47 46 46 44 43 40 41 43 47 50
9 3 13 16 12 12 10 16 20 18 24 24 26 28 36 37 38 37 38 40 43 43 39 38 34 34 33 25 27 37 43 50
3 6 13 7 7 5 7 10 15 14 19 18 26 29 32 34 37 34 34 38 41 46 45 38 29 31 32 27 19 24 35 42
3 9 10 5 3 3 3 7 10 16 20 30 31 30 30 28 26 24 23 24 27 34 39 42 39 29 23 25 25 27 38 37
7 9 5 2 3 2 5 5 7 19 26 29 30 29 30 31 26 23 18 16 16 21 27 39 43 30 26 24 20 21 25 29
7 11 4 4 3 7 7 8 20 22 25 29 26 23 21 21 29 28 20 16 12 16 21 39 46 34 27 21 18 19 23 28
6 5 8 7 10 10 13 26 26 30 23 19 18 19 21 20 16 21 26 18 16 16 22 37 38 35 27 24 23 25 23 29
7 8 11 13 10 12 30 33 29 22 15 11 13 23 32 27 14 14 21 22 21 19 29 31 29 33 37 36 29 31 35 34
10 11 13 14 16 26 39 32 24 20 23 25 29 32 33 37 39 35 34 33 29 27 26 27 26 31 30 27 27 40 36 34
14 18 24 34 41 39 30 22 16 13 16 16 15 18 22 23 25 32 36 40 45 38 36 33 30 29 35 32 34 38 39 36
34 42 43 40 36 29 22 16 9 6 9 13 8 11 14 18 20 21 24 30 40 43 33 37 32 29 35 37 32 35 43 38
38 39 35 31 24 17 10 7 3 4 3 5 9 10 12 16 21 19 17 21 27 39 36 28 31 31 30 33 36 33 42 42
46 34 27 25 19 15 11 6 3 1 5 4 6 9 7 17 22 16 12 19 24 26 37 24 25 30 22 23 26 27 36 45
32 26 24 20 16 16 15 10 6 5 7 5 2 10 10 12 20 16 18 17 21 20 29 31 23 22 23 28 29 30 36 44
27 24 18 14 11 9 15 12 9 3 5 8 7 12 18 17 13 14 21 23 22 18 20 27 16 17 24 27 31 32 33 41
25 19 18 18 10 3 7 19 11 5 2 6 6 12 13 15 18 13 20 24 21 16 13 18 15 17 22 26 31 32 31 37
27 23 18 17 18 12 15 17 14 7 4 3 7 10 7 16 23 8 16 24 26 16 11 13 16 17 20 25 28 27 31 37
24 17 14 16 16 15 12 15 14 11 10 8 10 15 12 13 18 19 22 26 27 19 14 21 11 18 22 29 28 28 33 39
26 20 18 18 16 17 15 12 14 17 16 16 22 15 16 15 19 21 19 24 22 26 18 19 6 18 24 26 27 29 33 39
Wind_Direction_850mb
148 146 42 354 348 355 13 5 359 360 14 31 16 29 52 59 50 49 41 47 52 52 49 50 47 44 43 46 57 55 45 34
143 104 349 344 345 8 21 1 1 6 34 48 53 61 65 65 58 59 61 62 60 53 53 54 57 58 60 63 60 51 42 30
149 346 338 340 6 34 14 1 1 24 61 68 68 69 76 79 73 64 60 57 53 52 53 48 47 46 36 34 43 38 34 28
151 317 329 351 50 31 5 5 5 58 80 57 79 85 79 77 73 65 59 56 56 52 48 39 35 39 29 31 42 35 34 41
245 307 317 51 60 345 67 21 8 97 83 85 90 81 69 56 50 47 41 41 49 45 39 35 29 24 34 32 47 51 44 41
287 288 303 160 107 111 94 33 53 114 106 94 82 70 41 31 32 25 19 19 25 33 22 22 21 24 30 43 53 42 39 25
268 287 184 146 176 136 120 97 107 112 107 89 66 46 42 28 21 12 17 27 19 36 13 15 15 24 26 19 10 9 14 13
270 82 107 149 150 144 112 125 114 107 90 68 36 30 14 3 9 18 29 39 41 51 17 12 12 21 14 17 17 22 21 11
117 145 151 134 127 128 129 124 110 100 85 63 47 26 39 38 13 354 0 9 14 15 1 9 21 31 39 39 32 19 10 12
145 150 141 151 156 134 125 122 119 106 83 70 78 73 60 57 54 53 50 43 36 33 27 29 44 49 42 33 31 27 18 17
119 146 145 133 126 126 124 119 111 93 73 74 71 49 43 40 44 48 46 42 39 42 45 48 60 53 38 36 34 22 15 20
132 132 128 127 124 121 117 122 118 69 43 23 2 354 19 14 15 24 30 35 34 37 45 52 49 42 36 39 28 24 18 11
146 138 128 123 121 119 98 79 79 50 102 29 16 20 2 350 350 360 18 27 26 35 34 33 33 33 31 26 22 20 15 10
148 143 141 140 141 143 143 178 240 352 97 23 358 355 345 3 1 357 17 22 14 23 24 30 24 10 8 16 16 9 9 7
151 147 142 139 137 149 148 140 141 139 186 209 305 347 15 7 2 4 8 5 360 11 27 29 20 18 11 5 5 3 3 3
157 161 161 167 187 214 178 167 171 178 293 232 285 342 340 351 345 4 1 355 344 352 13 27 14 3 356 359 2 359 4 5
169 177 176 184 188 147 170 166 188 248 329 175 288 350 335 339 341 354 349 352 342 348 349 16 11 347 345 355 359 357 1 1
182 183 175 209 234 231 290 218 220 263 293 313 340 352 293 4 8 326 336 338 339 348 345 351 351 345 347 358 352 350 353 359
192 186 220 204 245 258 169 189 222 253 288 308 307 312 292 314 337 338 323 322 324 340 326 339 330 352 341 347 345 347 351 358
187 198 223 243 263 250 201 208 240 250 274 306 312 327 351 355 346 332 335 342 327 319 308 334 311 351 333 331 339 347 350 359